| time (UTC) | temp F | wind direction | speed knots | gust knots | rain 1hr in | rain 24hr in | rain mn in | humidity % | barometer mb |
| 20260902113231 | 60 | 85 | 4.3 | 6.1 | 0.00 | 0.00 | 0.00 | 84 | 1014.2 |
| 20260902112730 | 59 | 96 | 3.5 | 4.3 | 0.00 | 0.00 | 0.00 | 85 | 1014.1 |
| 20260902112228 | 60 | 111 | 2.6 | 4.3 | 0.00 | 0.00 | 0.00 | 84 | 1014.3 |
| 20260902111723 | 60 | 112 | 2.6 | 2.6 | 0.00 | 0.00 | 0.00 | 84 | 1014.3 |
| 20260902111219 | 60 | 111 | 1.7 | 1.7 | 0.00 | 0.00 | 0.00 | 83 | 1014.3 |
| 20260902110714 | 60 | 81 | 2.6 | 2.6 | 0.00 | 0.00 | 0.00 | 83 | 1014.1 |
| 20260902110210 | 61 | 77 | 3.5 | 4.3 | 0.00 | 0.00 | 0.00 | 82 | 1014.0 |
| 20260902105710 | 61 | 68 | 4.3 | 6.1 | 0.00 | 0.00 | 0.00 | 82 | 1014.0 |
| 20260902105205 | 61 | 70 | 4.3 | 5.2 | 0.00 | 0.00 | 0.00 | 82 | 1013.9 |
| 20260902104701 | 61 | 69 | 3.5 | 4.3 | 0.00 | 0.00 | 0.00 | 82 | 1014.1 |
| 20260902104157 | 60 | 77 | 2.6 | 2.6 | 0.00 | 0.00 | 0.00 | 82 | 1014.2 |
| 20260902103655 | 60 | 72 | 1.7 | 1.7 | 0.00 | 0.00 | 0.00 | 82 | 1014.1 |
| 20260902103151 | 60 | 79 | 0.0 | 0.9 | 0.00 | 0.00 | 0.00 | 82 | 1014.2 |
| 20260902102647 | 61 | 112 | 0.0 | 0.9 | 0.00 | 0.00 | 0.00 | 80 | 1014.1 |
| 20260902102144 | 62 | 97 | 2.6 | 2.6 | 0.00 | 0.00 | 0.00 | 79 | 1014.1 |
| 20260902101639 | 62 | 76 | 2.6 | 2.6 | 0.00 | 0.00 | 0.00 | 78 | 1014.3 |
| 20260902101138 | 62 | 74 | 2.6 | 2.6 | 0.00 | 0.00 | 0.00 | 78 | 1013.9 |
| 20260902100633 | 60 | 53 | 1.7 | 1.7 | 0.00 | 0.00 | 0.00 | 81 | 1014.0 |
| 20260902100128 | 60 | 108 | 0.0 | 0.0 | 0.00 | 0.00 | 0.00 | 82 | 1014.1 |
| 20260902095627 | 61 | 152 | 0.0 | 0.0 | 0.00 | 0.00 | 0.00 | 81 | 1014.1 |
| 20260902095126 | 62 | 61 | 0.9 | 0.9 | 0.00 | 0.00 | 0.00 | 80 | 1014.0 |
| 20260902094621 | 62 | 64 | 1.7 | 1.7 | 0.00 | 0.00 | 0.00 | 79 | 1014.0 |
| 20260902094118 | 62 | 62 | 1.7 | 1.7 | 0.00 | 0.00 | 0.00 | 79 | 1014.2 |
| 20260902093612 | 62 | 58 | 2.6 | 2.6 | 0.00 | 0.00 | 0.00 | 79 | 1013.9 |
| 20260902093106 | 63 | 66 | 2.6 | 2.6 | 0.00 | 0.00 | 0.00 | 78 | 1014.1 |
| 20260902092601 | 63 | 69 | 1.7 | 2.6 | 0.00 | 0.00 | 0.00 | 77 | 1013.9 |
| 20260902092056 | 63 | 62 | 2.6 | 2.6 | 0.00 | 0.00 | 0.00 | 78 | 1014.0 |
| 20260902091551 | 62 | 58 | 2.6 | 2.6 | 0.00 | 0.00 | 0.00 | 79 | 1014.0 |
| 20260902091047 | 62 | 76 | 1.7 | 1.7 | 0.00 | 0.00 | 0.00 | 79 | 1014.3 |
| 20260902090542 | 62 | 83 | 2.6 | 2.6 | 0.00 | 0.00 | 0.00 | 79 | 1014.1 |
| 20260902090042 | 62 | 77 | 1.7 | 1.7 | 0.00 | 0.00 | 0.00 | 81 | 1014.4 |
| 20260902085536 | 62 | 93 | 0.9 | 0.9 | 0.00 | 0.00 | 0.00 | 80 | 1014.6 |
| 20260902085031 | 62 | 94 | 1.7 | 1.7 | 0.00 | 0.00 | 0.00 | 79 | 1014.5 |
| 20260902084522 | 62 | 84 | 0.9 | 0.9 | 0.00 | 0.00 | 0.00 | 80 | 1014.5 |
| 20260902084017 | 63 | 81 | 0.9 | 0.9 | 0.00 | 0.00 | 0.00 | 78 | 1014.5 |
| 20260902083513 | 63 | 102 | 0.9 | 1.7 | 0.00 | 0.00 | 0.00 | 78 | 1014.4 |
| 20260902083007 | 63 | 114 | 1.7 | 1.7 | 0.00 | 0.00 | 0.00 | 78 | 1014.6 |
| 20260902082503 | 63 | 76 | 2.6 | 2.6 | 0.00 | 0.00 | 0.00 | 78 | 1014.4 |
| 20260902081959 | 63 | 62 | 2.6 | 2.6 | 0.00 | 0.00 | 0.00 | 78 | 1014.4 |
| 20260902081456 | 62 | 58 | 1.7 | 1.7 | 0.00 | 0.00 | 0.00 | 78 | 1014.5 |
| 20260902080954 | 62 | 72 | 0.9 | 0.9 | 0.00 | 0.00 | 0.00 | 78 | 1014.4 |
| 20260902080451 | 62 | 77 | 0.9 | 1.7 | 0.00 | 0.00 | 0.00 | 78 | 1014.3 |
| 20260902075950 | 62 | 72 | 1.7 | 1.7 | 0.00 | 0.00 | 0.00 | 78 | 1014.3 |
| 20260902075447 | 63 | 67 | 2.6 | 2.6 | 0.00 | 0.00 | 0.00 | 77 | 1014.4 |
| 20260902074942 | 63 | 50 | 2.6 | 2.6 | 0.00 | 0.00 | 0.00 | 77 | 1014.3 |
| 20260902074438 | 63 | 63 | 2.6 | 2.6 | 0.00 | 0.00 | 0.00 | 77 | 1014.4 |
| 20260902073933 | 63 | 62 | 2.6 | 2.6 | 0.00 | 0.00 | 0.00 | 77 | 1014.2 |
| 20260902073429 | 63 | 67 | 1.7 | 1.7 | 0.00 | 0.00 | 0.00 | 77 | 1014.4 |
| 20260902072925 | 63 | 64 | 3.5 | 4.3 | 0.00 | 0.00 | 0.00 | 76 | 1014.4 |
| 20260902072420 | 63 | 72 | 3.5 | 4.3 | 0.00 | 0.00 | 0.00 | 75 | 1014.8 |
| 20260902071917 | 63 | 99 | 2.6 | 2.6 | 0.00 | 0.00 | 0.00 | 75 | 1015.0 |
| 20260902071416 | 63 | 72 | 2.6 | 2.6 | 0.00 | 0.00 | 0.00 | 75 | 1014.9 |
| 20260902070913 | 63 | 123 | 3.5 | 4.3 | 0.00 | 0.00 | 0.00 | 75 | 1014.5 |
| 20260902070408 | 63 | 118 | 4.3 | 4.3 | 0.00 | 0.00 | 0.00 | 76 | 1014.9 |
| 20260902065906 | 63 | 103 | 2.6 | 2.6 | 0.00 | 0.00 | 0.00 | 75 | 1014.9 |
| 20260902065356 | 63 | 117 | 3.5 | 4.3 | 0.00 | 0.00 | 0.00 | 75 | 1014.8 |
| 20260902064851 | 63 | 94 | 2.6 | 2.6 | 0.00 | 0.00 | 0.00 | 75 | 1014.6 |
| 20260902064347 | 63 | 104 | 2.6 | 2.6 | 0.00 | 0.00 | 0.00 | 74 | 1014.8 |
| 20260902063842 | 63 | 115 | 4.3 | 5.2 | 0.00 | 0.00 | 0.00 | 74 | 1014.8 |
| 20260902063336 | 63 | 101 | 4.3 | 5.2 | 0.00 | 0.00 | 0.00 | 74 | 1014.5 |
| 20260902062830 | 62 | 108 | 2.6 | 2.6 | 0.00 | 0.00 | 0.00 | 76 | 1014.4 |
| 20260902062325 | 62 | 91 | 0.9 | 0.9 | 0.00 | 0.00 | 0.00 | 76 | 1014.4 |
| 20260902061825 | 62 | 81 | 0.9 | 1.7 | 0.00 | 0.00 | 0.00 | 76 | 1014.4 |
| 20260902061320 | 62 | 126 | 1.7 | 1.7 | 0.00 | 0.00 | 0.00 | 76 | 1014.5 |
| 20260902060817 | 62 | 100 | 0.9 | 1.7 | 0.00 | 0.00 | 0.00 | 77 | 1014.4 |
| 20260902060312 | 62 | 91 | 1.7 | 1.7 | 0.00 | 0.00 | 0.00 | 75 | 1014.6 |
| 20260902055808 | 63 | 75 | 2.6 | 2.6 | 0.00 | 0.00 | 0.00 | 74 | 1014.5 |
| 20260902055307 | 63 | 73 | 1.7 | 1.7 | 0.00 | 0.00 | 0.00 | 75 | 1014.4 |
| 20260902054759 | 63 | 89 | 2.6 | 2.6 | 0.00 | 0.00 | 0.00 | 74 | 1014.5 |
| 20260902054254 | 63 | 114 | 2.6 | 2.6 | 0.00 | 0.00 | 0.00 | 73 | 1014.5 |
| 20260902053750 | 64 | 87 | 1.7 | 1.7 | 0.00 | 0.00 | 0.00 | 72 | 1014.6 |
| 20260902053249 | 65 | 71 | 3.5 | 4.3 | 0.00 | 0.00 | 0.00 | 71 | 1014.5 |
| 20260902052748 | 66 | 55 | 2.6 | 2.6 | 0.00 | 0.00 | 0.00 | 70 | 1014.3 |
| 20260902052244 | 66 | 63 | 2.6 | 2.6 | 0.00 | 0.00 | 0.00 | 70 | 1014.4 |
| 20260902051743 | 66 | 60 | 2.6 | 2.6 | 0.00 | 0.00 | 0.00 | 69 | 1014.5 |
| 20260902051238 | 65 | 62 | 2.6 | 2.6 | 0.00 | 0.00 | 0.00 | 69 | 1014.5 |
| 20260902050732 | 65 | 66 | 3.5 | 5.2 | 0.00 | 0.00 | 0.00 | 70 | 1014.5 |
| 20260902050222 | 65 | 70 | 3.5 | 4.3 | 0.00 | 0.00 | 0.00 | 70 | 1014.5 |
| 20260902045723 | 65 | 81 | 2.6 | 4.3 | 0.00 | 0.00 | 0.00 | 70 | 1014.5 |
| 20260902045219 | 65 | 65 | 4.3 | 4.3 | 0.00 | 0.00 | 0.00 | 69 | 1014.4 |
| 20260902044714 | 65 | 72 | 2.6 | 2.6 | 0.00 | 0.00 | 0.00 | 69 | 1014.6 |
| 20260902044209 | 65 | 100 | 2.6 | 4.3 | 0.00 | 0.00 | 0.00 | 67 | 1014.9 |
| 20260902043659 | 66 | 119 | 3.5 | 4.3 | 0.00 | 0.00 | 0.00 | 67 | 1014.8 |
| 20260902043154 | 66 | 89 | 2.6 | 2.6 | 0.00 | 0.00 | 0.00 | 67 | 1014.6 |
| 20260902042653 | 66 | 80 | 2.6 | 2.6 | 0.00 | 0.00 | 0.00 | 66 | 1014.6 |
| 20260902042148 | 65 | 102 | 2.6 | 2.6 | 0.00 | 0.00 | 0.00 | 68 | 1014.9 |
| 20260902041648 | 65 | 75 | 2.6 | 2.6 | 0.00 | 0.00 | 0.00 | 69 | 1015.0 |
| 20260902041142 | 66 | 81 | 2.6 | 2.6 | 0.00 | 0.00 | 0.00 | 68 | 1014.6 |
| 20260902040642 | 66 | 76 | 3.5 | 4.3 | 0.00 | 0.00 | 0.00 | 67 | 1014.4 |
| 20260902040137 | 66 | 66 | 2.6 | 2.6 | 0.00 | 0.00 | 0.00 | 67 | 1015.0 |
| 20260902035635 | 66 | 79 | 0.9 | 1.7 | 0.00 | 0.00 | 0.00 | 69 | 1014.9 |
| 20260902035131 | 67 | 76 | 1.7 | 2.6 | 0.00 | 0.00 | 0.00 | 67 | 1014.9 |
| 20260902034630 | 67 | 74 | 2.6 | 2.6 | 0.00 | 0.00 | 0.00 | 66 | 1014.8 |
| 20260902034125 | 67 | 83 | 3.5 | 4.3 | 0.00 | 0.00 | 0.00 | 66 | 1014.8 |
| 20260902033625 | 67 | 69 | 2.6 | 2.6 | 0.00 | 0.00 | 0.00 | 66 | 1014.9 |
| 20260902033119 | 67 | 82 | 1.7 | 1.7 | 0.00 | 0.00 | 0.00 | 66 | 1014.8 |
| 20260902032618 | 68 | 80 | 2.6 | 2.6 | 0.00 | 0.00 | 0.00 | 64 | 1014.9 |
| 20260902032112 | 68 | 70 | 2.6 | 2.6 | 0.00 | 0.00 | 0.00 | 63 | 1014.6 |
| 20260902031607 | 68 | 70 | 2.6 | 2.6 | 0.00 | 0.00 | 0.00 | 63 | 1014.5 |
| 20260902031104 | 68 | 76 | 3.5 | 4.3 | 0.00 | 0.00 | 0.00 | 62 | 1014.6 |
| 20260902030603 | 68 | 71 | 3.5 | 4.3 | 0.00 | 0.00 | 0.00 | 62 | 1014.5 |
| 20260902030058 | 68 | 88 | 2.6 | 2.6 | 0.00 | 0.00 | 0.00 | 63 | 1014.9 |
| 20260902025557 | 68 | 79 | 2.6 | 2.6 | 0.00 | 0.00 | 0.00 | 64 | 1014.8 |
| 20260902025047 | 67 | 63 | 3.5 | 4.3 | 0.00 | 0.00 | 0.00 | 64 | 1015.0 |
| 20260902024542 | 68 | 76 | 2.6 | 2.6 | 0.00 | 0.00 | 0.00 | 66 | 1015.0 |
| 20260902024037 | 68 | 79 | 1.7 | 1.7 | 0.00 | 0.00 | 0.00 | 65 | 1014.8 |
| 20260902023533 | 68 | 69 | 2.6 | 2.6 | 0.00 | 0.00 | 0.00 | 66 | 1014.9 |
| 20260902023027 | 68 | 64 | 1.7 | 1.7 | 0.00 | 0.00 | 0.00 | 67 | 1014.6 |
| 20260902022522 | 68 | 60 | 2.6 | 4.3 | 0.00 | 0.00 | 0.00 | 67 | 1014.6 |
| 20260902022018 | 68 | 74 | 1.7 | 1.7 | 0.00 | 0.00 | 0.00 | 67 | 1014.8 |
| 20260902021513 | 69 | 67 | 1.7 | 1.7 | 0.00 | 0.00 | 0.00 | 66 | 1014.6 |
| 20260902021008 | 68 | 71 | 1.7 | 1.7 | 0.00 | 0.00 | 0.00 | 67 | 1014.6 |
| 20260902020504 | 68 | 95 | 1.7 | 2.6 | 0.00 | 0.00 | 0.00 | 69 | 1014.5 |
| 20260902015959 | 68 | 100 | 0.9 | 1.7 | 0.00 | 0.00 | 0.00 | 69 | 1014.8 |
| 20260902015455 | 68 | 102 | 1.7 | 1.7 | 0.00 | 0.00 | 0.00 | 70 | 1014.4 |
| 20260902014950 | 68 | 104 | 0.9 | 1.7 | 0.00 | 0.00 | 0.00 | 69 | 1014.5 |
| 20260902014447 | 69 | 87 | 0.9 | 0.9 | 0.00 | 0.00 | 0.00 | 69 | 1014.5 |
| 20260902013947 | 69 | 87 | 2.6 | 2.6 | 0.00 | 0.00 | 0.00 | 67 | 1014.3 |
| 20260902013441 | 69 | 74 | 1.7 | 1.7 | 0.00 | 0.00 | 0.00 | 67 | 1014.3 |
| 20260902012936 | 69 | 73 | 0.9 | 1.7 | 0.00 | 0.00 | 0.00 | 67 | 1014.5 |
| 20260902012432 | 70 | 90 | 0.9 | 0.9 | 0.00 | 0.00 | 0.00 | 65 | 1014.5 |
| 20260902011928 | 70 | 75 | 0.9 | 0.9 | 0.00 | 0.00 | 0.00 | 65 | 1014.5 |
| 20260902011422 | 71 | 91 | 0.9 | 0.9 | 0.00 | 0.00 | 0.00 | 66 | 1014.4 |
| 20260902010916 | 71 | 107 | 1.7 | 1.7 | 0.00 | 0.00 | 0.00 | 65 | 1014.6 |
| 20260902010412 | 71 | 95 | 0.9 | 1.7 | 0.00 | 0.00 | 0.00 | 66 | 1014.6 |
| 20260902005910 | 71 | 95 | 0.9 | 1.7 | 0.00 | 0.00 | 0.00 | 66 | 1014.5 |
| 20260902005410 | 72 | 87 | 0.9 | 0.9 | 0.00 | 0.00 | 0.00 | 67 | 1014.8 |
| 20260902004906 | 72 | 86 | 0.9 | 0.9 | 0.00 | 0.00 | 0.00 | 67 | 1014.6 |
| 20260902004405 | 73 | 79 | 1.7 | 1.7 | 0.00 | 0.00 | 0.00 | 63 | 1014.5 |
| 20260902003901 | 73 | 73 | 0.9 | 0.9 | 0.00 | 0.00 | 0.00 | 63 | 1014.6 |
| 20260902003356 | 73 | 74 | 0.9 | 0.9 | 0.00 | 0.00 | 0.00 | 62 | 1014.9 |
| 20260902002852 | 73 | 62 | 0.9 | 0.9 | 0.00 | 0.00 | 0.00 | 61 | 1014.6 |
| 20260902002350 | 73 | 75 | 0.9 | 0.9 | 0.00 | 0.00 | 0.00 | 61 | 1014.3 |
| 20260902001846 | 73 | 73 | 0.0 | 0.0 | 0.00 | 0.00 | 0.00 | 60 | 1014.8 |
| 20260902001341 | 74 | 63 | 0.9 | 0.9 | 0.00 | 0.00 | 0.00 | 61 | 1014.5 |
| 20260902000836 | 74 | 79 | 1.7 | 1.7 | 0.00 | 0.00 | 0.00 | 59 | 1014.6 |
| 20260902000337 | 74 | 74 | 0.0 | 0.0 | 0.00 | 0.00 | 0.00 | 59 | 1014.9 |
| 20260901235831 | 75 | 96 | 0.0 | 0.0 | 0.00 | 0.00 | 0.00 | 57 | 1014.8 |
| 20260901235330 | 74 | 113 | 1.7 | 1.7 | 0.00 | 0.00 | 0.00 | 55 | 1014.8 |
| 20260901234825 | 74 | 126 | 0.9 | 1.7 | 0.00 | 0.00 | 0.00 | 55 | 1015.0 |
| 20260901234319 | 74 | 126 | 0.9 | 0.9 | 0.00 | 0.00 | 0.00 | 56 | 1014.5 |
| 20260901233815 | 74 | 135 | 2.6 | 2.6 | 0.00 | 0.00 | 0.00 | 55 | 1015.1 |
| 20260901233311 | 74 | 132 | 1.7 | 2.6 | 0.00 | 0.00 | 0.00 | 57 | 1015.0 |
| 20260901232806 | 74 | 130 | 1.7 | 1.7 | 0.00 | 0.00 | 0.00 | 58 | 1015.3 |
| 20260901232301 | 74 | 124 | 1.7 | 1.7 | 0.00 | 0.00 | 0.00 | 58 | 1015.1 |
| 20260901231757 | 74 | 120 | 2.6 | 2.6 | 0.00 | 0.00 | 0.00 | 57 | 1014.9 |
| 20260901231253 | 75 | 146 | 2.6 | 2.6 | 0.00 | 0.00 | 0.00 | 56 | 1015.0 |
| 20260901230749 | 75 | 108 | 0.9 | 1.7 | 0.00 | 0.00 | 0.00 | 57 | 1015.2 |
| 20260901230248 | 75 | 109 | 0.9 | 1.7 | 0.00 | 0.00 | 0.00 | 56 | 1015.0 |
| 20260901225744 | 75 | 116 | 2.6 | 2.6 | 0.00 | 0.00 | 0.00 | 55 | 1014.9 |
| 20260901225238 | 75 | 121 | 1.7 | 1.7 | 0.00 | 0.00 | 0.00 | 55 | 1014.9 |
| 20260901224734 | 75 | 106 | 0.9 | 0.9 | 0.00 | 0.00 | 0.00 | 54 | 1015.1 |
| 20260901224225 | 75 | 112 | 1.7 | 1.7 | 0.00 | 0.00 | 0.00 | 53 | 1014.9 |
| 20260901223721 | 75 | 119 | 1.7 | 1.7 | 0.00 | 0.00 | 0.00 | 55 | 1015.1 |
| 20260901223215 | 75 | 103 | 1.7 | 1.7 | 0.00 | 0.00 | 0.00 | 53 | 1014.8 |
| 20260901222711 | 75 | 108 | 0.9 | 0.9 | 0.00 | 0.00 | 0.00 | 54 | 1014.9 |
| 20260901222208 | 75 | 115 | 2.6 | 2.6 | 0.00 | 0.00 | 0.00 | 51 | 1015.0 |
| 20260901221703 | 75 | 106 | 2.6 | 2.6 | 0.00 | 0.00 | 0.00 | 52 | 1015.1 |
| 20260901221159 | 75 | 104 | 1.7 | 1.7 | 0.00 | 0.00 | 0.00 | 52 | 1015.1 |
| 20260901220658 | 75 | 108 | 2.6 | 2.6 | 0.00 | 0.00 | 0.00 | 50 | 1015.3 |
| 20260901220157 | 76 | 127 | 1.7 | 1.7 | 0.00 | 0.00 | 0.00 | 49 | 1015.2 |
| 20260901215655 | 76 | 129 | 1.7 | 1.7 | 0.00 | 0.00 | 0.00 | 50 | 1015.2 |
| 20260901215150 | 76 | 132 | 2.6 | 2.6 | 0.00 | 0.00 | 0.00 | 50 | 1015.3 |
| 20260901214648 | 76 | 123 | 1.7 | 1.7 | 0.00 | 0.00 | 0.00 | 50 | 1015.4 |
| 20260901214143 | 76 | 128 | 2.6 | 2.6 | 0.00 | 0.00 | 0.00 | 50 | 1015.5 |
| 20260901213642 | 76 | 135 | 1.7 | 1.7 | 0.00 | 0.00 | 0.00 | 50 | 1015.3 |
| 20260901213137 | 76 | 134 | 1.7 | 1.7 | 0.00 | 0.00 | 0.00 | 48 | 1015.3 |
| 20260901212637 | 77 | 149 | 1.7 | 1.7 | 0.00 | 0.00 | 0.00 | 48 | 1015.3 |
| 20260901212133 | 77 | 141 | 0.9 | 0.9 | 0.00 | 0.00 | 0.00 | 51 | 1015.5 |
| 20260901211627 | 77 | 108 | 1.7 | 1.7 | 0.00 | 0.00 | 0.00 | 46 | 1015.3 |
| 20260901211124 | 77 | 102 | 0.9 | 1.7 | 0.00 | 0.00 | 0.00 | 47 | 1015.3 |
| 20260901210620 | 77 | 148 | 0.9 | 1.7 | 0.00 | 0.00 | 0.00 | 45 | 1015.6 |
| 20260901210116 | 77 | 157 | 2.6 | 2.6 | 0.00 | 0.00 | 0.00 | 45 | 1015.4 |
| 20260901205611 | 77 | 142 | 0.9 | 1.7 | 0.00 | 0.00 | 0.00 | 46 | 1015.6 |
| 20260901205105 | 77 | 108 | 2.6 | 2.6 | 0.00 | 0.00 | 0.00 | 46 | 1015.6 |
| 20260901204602 | 77 | 182 | 2.6 | 2.6 | 0.00 | 0.00 | 0.00 | 47 | 1015.8 |
| 20260901204056 | 77 | 135 | 2.6 | 2.6 | 0.00 | 0.00 | 0.00 | 48 | 1015.5 |
| 20260901203550 | 77 | 149 | 2.6 | 2.6 | 0.00 | 0.00 | 0.00 | 48 | 1015.7 |
| 20260901203046 | 77 | 160 | 2.6 | 2.6 | 0.00 | 0.00 | 0.00 | 47 | 1015.6 |
| 20260901202545 | 77 | 158 | 1.7 | 1.7 | 0.00 | 0.00 | 0.00 | 49 | 1015.7 |
| 20260901202042 | 77 | 186 | 1.7 | 1.7 | 0.00 | 0.00 | 0.00 | 48 | 1015.7 |
| 20260901201537 | 77 | 179 | 1.7 | 1.7 | 0.00 | 0.00 | 0.00 | 48 | 1015.8 |
| 20260901201036 | 77 | 181 | 1.7 | 1.7 | 0.00 | 0.00 | 0.00 | 47 | 1015.6 |
| 20260901200536 | 77 | 190 | 1.7 | 1.7 | 0.00 | 0.00 | 0.00 | 48 | 1015.9 |
| 20260901200031 | 77 | 151 | 1.7 | 1.7 | 0.00 | 0.00 | 0.00 | 46 | 1016.0 |
| 20260901195528 | 77 | 156 | 0.9 | 0.9 | 0.00 | 0.00 | 0.00 | 46 | 1016.2 |
| 20260901195023 | 77 | 215 | 3.5 | 4.3 | 0.00 | 0.00 | 0.00 | 45 | 1016.1 |
| 20260901194518 | 77 | 222 | 3.5 | 5.2 | 0.00 | 0.00 | 0.00 | 44 | 1016.2 |
| 20260901194014 | 78 | 228 | 3.5 | 4.3 | 0.00 | 0.00 | 0.00 | 44 | 1016.0 |
| 20260901193513 | 78 | 201 | 1.7 | 1.7 | 0.00 | 0.00 | 0.00 | 42 | 1016.1 |
| 20260901193014 | 78 | 231 | 0.9 | 1.7 | 0.00 | 0.00 | 0.00 | 43 | 1016.2 |
| 20260901192509 | 79 | 331 | 2.6 | 2.6 | 0.00 | 0.00 | 0.00 | 42 | 1016.0 |
| 20260901192004 | 79 | 147 | 1.7 | 1.7 | 0.00 | 0.00 | 0.00 | 43 | 1016.2 |
| 20260901191500 | 79 | 177 | 2.6 | 2.6 | 0.00 | 0.00 | 0.00 | 41 | 1016.2 |
| 20260901190955 | 80 | 249 | 2.6 | 4.3 | 0.00 | 0.00 | 0.00 | 40 | 1016.2 |
| 20260901190451 | 79 | 189 | 5.2 | 6.1 | 0.00 | 0.00 | 0.00 | 41 | 1016.1 |
| 20260901185949 | 79 | 189 | 3.5 | 4.3 | 0.00 | 0.00 | 0.00 | 43 | 1016.2 |
| 20260901185443 | 79 | 188 | 2.6 | 2.6 | 0.00 | 0.00 | 0.00 | 44 | 1016.4 |
| 20260901184943 | 77 | 184 | 0.9 | 1.7 | 0.00 | 0.00 | 0.00 | 46 | 1016.3 |
| 20260901184439 | 78 | 224 | 3.5 | 4.3 | 0.00 | 0.00 | 0.00 | 45 | 1016.3 |
| 20260901183934 | 77 | 154 | 0.9 | 1.7 | 0.00 | 0.00 | 0.00 | 45 | 1016.3 |
| 20260901183433 | 76 | 189 | 2.6 | 2.6 | 0.00 | 0.00 | 0.00 | 44 | 1016.2 |
| 20260901182929 | 76 | 195 | 2.6 | 2.6 | 0.00 | 0.00 | 0.00 | 44 | 1016.3 |
| 20260901182425 | 77 | 145 | 0.9 | 0.9 | 0.00 | 0.00 | 0.00 | 45 | 1016.4 |
| 20260901181919 | 76 | 263 | 0.9 | 0.9 | 0.00 | 0.00 | 0.00 | 45 | 1016.3 |
| 20260901181414 | 77 | 203 | 1.7 | 1.7 | 0.00 | 0.00 | 0.00 | 44 | 1016.3 |
| 20260901180912 | 77 | 323 | 1.7 | 1.7 | 0.00 | 0.00 | 0.00 | 46 | 1016.2 |
| 20260901180407 | 76 | 43 | 2.6 | 2.6 | 0.00 | 0.00 | 0.00 | 48 | 1016.7 |
| 20260901175905 | 76 | 43 | 2.6 | 2.6 | 0.00 | 0.00 | 0.00 | 48 | 1016.7 |
| 20260901175400 | 76 | 4 | 0.0 | 0.0 | 0.00 | 0.00 | 0.00 | 47 | 1016.4 |
| 20260901174856 | 77 | 254 | 2.6 | 2.6 | 0.00 | 0.00 | 0.00 | 48 | 1016.6 |
| 20260901174352 | 76 | 162 | 0.9 | 0.9 | 0.00 | 0.00 | 0.00 | 51 | 1016.8 |
| 20260901173847 | 77 | 183 | 0.9 | 0.9 | 0.00 | 0.00 | 0.00 | 51 | 1016.7 |
| 20260901173341 | 76 | 146 | 1.7 | 1.7 | 0.00 | 0.00 | 0.00 | 51 | 1016.8 |
| 20260901172838 | 76 | 179 | 2.6 | 2.6 | 0.00 | 0.00 | 0.00 | 54 | 1016.9 |
| 20260901172337 | 77 | 197 | 2.6 | 2.6 | 0.00 | 0.00 | 0.00 | 52 | 1016.9 |
| 20260901171836 | 76 | 228 | 3.5 | 4.3 | 0.00 | 0.00 | 0.00 | 54 | 1016.8 |
| 20260901171335 | 77 | 77 | 0.0 | 0.9 | 0.00 | 0.00 | 0.00 | 50 | 1016.8 |
| 20260901170834 | 77 | 169 | 1.7 | 1.7 | 0.00 | 0.00 | 0.00 | 52 | 1016.9 |
| 20260901170328 | 76 | 149 | 1.7 | 1.7 | 0.00 | 0.00 | 0.00 | 55 | 1016.8 |
| 20260901165827 | 77 | 272 | 3.5 | 4.3 | 0.00 | 0.00 | 0.00 | 55 | 1017.0 |
| 20260901165322 | 76 | 136 | 0.9 | 1.7 | 0.00 | 0.00 | 0.00 | 52 | 1016.8 |
| 20260901164819 | 77 | 54 | 1.7 | 1.7 | 0.00 | 0.00 | 0.00 | 55 | 1016.7 |
| 20260901164314 | 76 | 104 | 0.9 | 1.7 | 0.00 | 0.00 | 0.00 | 54 | 1016.8 |
| 20260901163808 | 75 | 91 | 1.7 | 1.7 | 0.00 | 0.00 | 0.00 | 54 | 1016.8 |
| 20260901163303 | 75 | 99 | 1.7 | 1.7 | 0.00 | 0.00 | 0.00 | 57 | 1016.9 |
| 20260901162758 | 75 | 106 | 0.9 | 0.9 | 0.00 | 0.00 | 0.00 | 57 | 1017.0 |
| 20260901162257 | 75 | 161 | 2.6 | 4.3 | 0.00 | 0.00 | 0.00 | 55 | 1017.0 |
| 20260901161756 | 74 | 121 | 0.9 | 0.9 | 0.00 | 0.00 | 0.00 | 58 | 1016.9 |
| 20260901161250 | 74 | 45 | 0.9 | 0.9 | 0.00 | 0.00 | 0.00 | 56 | 1017.2 |
| 20260901160747 | 74 | 76 | 0.9 | 0.9 | 0.00 | 0.00 | 0.00 | 57 | 1017.0 |
| 20260901160243 | 73 | 135 | 0.9 | 0.9 | 0.00 | 0.00 | 0.00 | 56 | 1017.0 |
| 20260901155741 | 74 | 115 | 1.7 | 1.7 | 0.00 | 0.00 | 0.00 | 59 | 1016.8 |
| 20260901155236 | 74 | 94 | 0.0 | 0.0 | 0.00 | 0.00 | 0.00 | 59 | 1017.1 |
| 20260901154732 | 75 | 138 | 1.7 | 1.7 | 0.00 | 0.00 | 0.00 | 61 | 1016.8 |
| 20260901154226 | 75 | 74 | 0.0 | 0.0 | 0.00 | 0.00 | 0.00 | 58 | 1016.7 |
| 20260901153721 | 73 | 356 | 0.0 | 0.0 | 0.00 | 0.00 | 0.00 | 58 | 1017.0 |
| 20260901153220 | 72 | 106 | 0.9 | 0.9 | 0.00 | 0.00 | 0.00 | 65 | 1017.2 |
| 20260901152715 | 72 | 108 | 1.7 | 1.7 | 0.00 | 0.00 | 0.00 | 65 | 1016.8 |
| 20260901152213 | 71 | 155 | 1.7 | 1.7 | 0.00 | 0.00 | 0.00 | 64 | 1016.9 |
| 20260901151710 | 71 | 131 | 0.0 | 0.9 | 0.00 | 0.00 | 0.00 | 61 | 1016.8 |
| 20260901151209 | 72 | 125 | 1.7 | 1.7 | 0.00 | 0.00 | 0.00 | 61 | 1017.0 |
| 20260901150708 | 71 | 69 | 0.0 | 0.0 | 0.00 | 0.00 | 0.00 | 60 | 1017.0 |
| 20260901150206 | 70 | 86 | 0.0 | 0.0 | 0.00 | 0.00 | 0.00 | 63 | 1017.0 |
| 20260901145704 | 70 | 79 | 0.0 | 0.9 | 0.00 | 0.00 | 0.00 | 61 | 1016.8 |
| 20260901145159 | 68 | 71 | 0.0 | 0.0 | 0.00 | 0.00 | 0.00 | 64 | 1017.0 |
| 20260901144655 | 68 | 41 | 1.7 | 1.7 | 0.00 | 0.00 | 0.00 | 65 | 1017.1 |
| 20260901144149 | 67 | 318 | 0.9 | 1.7 | 0.00 | 0.00 | 0.00 | 65 | 1016.8 |
| 20260901143645 | 66 | 53 | 0.0 | 0.9 | 0.00 | 0.00 | 0.00 | 66 | 1017.1 |
| 20260901143141 | 66 | 65 | 0.0 | 0.0 | 0.00 | 0.00 | 0.00 | 68 | 1016.9 |
| 20260901142637 | 65 | 109 | 0.0 | 0.0 | 0.00 | 0.00 | 0.00 | 69 | 1017.2 |
| 20260901142136 | 64 | 171 | 0.0 | 0.0 | 0.00 | 0.00 | 0.00 | 68 | 1017.1 |
| 20260901141631 | 63 | 132 | 0.0 | 0.0 | 0.00 | 0.00 | 0.00 | 69 | 1017.2 |
| 20260901141131 | 65 | 200 | 4.3 | 5.2 | 0.00 | 0.00 | 0.00 | 70 | 1017.3 |
| 20260901140630 | 66 | 181 | 2.6 | 2.6 | 0.00 | 0.00 | 0.00 | 69 | 1017.4 |
| 20260901140129 | 65 | 59 | 0.0 | 0.9 | 0.00 | 0.00 | 0.00 | 67 | 1017.3 |
| 20260901135624 | 63 | 49 | 0.9 | 0.9 | 0.00 | 0.00 | 0.00 | 71 | 1017.0 |
| 20260901135119 | 62 | 35 | 0.9 | 0.9 | 0.00 | 0.00 | 0.00 | 71 | 1016.8 |
| 20260901134615 | 62 | 51 | 0.9 | 0.9 | 0.00 | 0.00 | 0.00 | 71 | 1016.8 |
| 20260901134110 | 62 | 65 | 0.0 | 0.0 | 0.00 | 0.00 | 0.00 | 71 | 1016.8 |
| 20260901133608 | 60 | 55 | 0.0 | 0.0 | 0.00 | 0.00 | 0.00 | 76 | 1017.0 |
| 20260901133108 | 60 | 36 | 0.0 | 0.0 | 0.00 | 0.00 | 0.00 | 73 | 1017.1 |
| 20260901132603 | 62 | 66 | 0.0 | 0.0 | 0.00 | 0.00 | 0.00 | 71 | 1017.2 |
| 20260901132102 | 61 | 65 | 0.0 | 0.0 | 0.00 | 0.00 | 0.00 | 71 | 1017.2 |
| 20260901131602 | 61 | 65 | 0.0 | 0.0 | 0.00 | 0.00 | 0.00 | 74 | 1017.1 |
| 20260901131057 | 59 | 65 | 0.0 | 0.0 | 0.00 | 0.00 | 0.00 | 76 | 1017.1 |
| 20260901130552 | 58 | 65 | 0.0 | 0.0 | 0.00 | 0.00 | 0.00 | 79 | 1017.1 |
| 20260901130050 | 57 | 64 | 0.0 | 0.0 | 0.00 | 0.00 | 0.00 | 79 | 1017.0 |
| 20260901125549 | 56 | 64 | 0.0 | 0.0 | 0.00 | 0.00 | 0.00 | 79 | 1016.7 |
| 20260901125045 | 57 | 62 | 0.0 | 0.0 | 0.00 | 0.00 | 0.00 | 79 | 1016.9 |
| 20260901124544 | 56 | 62 | 0.0 | 0.0 | 0.00 | 0.00 | 0.00 | 79 | 1016.8 |
| 20260901124039 | 55 | 62 | 0.0 | 0.0 | 0.00 | 0.00 | 0.00 | 80 | 1016.7 |
| 20260901123534 | 55 | 50 | 0.0 | 0.0 | 0.00 | 0.00 | 0.00 | 80 | 1016.8 |
| 20260901123033 | 54 | 22 | 0.0 | 0.0 | 0.00 | 0.00 | 0.00 | 80 | 1016.6 |
| 20260901122532 | 54 | 49 | 0.0 | 0.0 | 0.00 | 0.00 | 0.00 | 81 | 1016.6 |
| 20260901122026 | 54 | 29 | 0.9 | 0.9 | 0.00 | 0.00 | 0.00 | 80 | 1016.4 |
| 20260901121521 | 53 | 22 | 1.7 | 1.7 | 0.00 | 0.00 | 0.00 | 81 | 1016.7 |
| 20260901121016 | 53 | 66 | 0.0 | 0.0 | 0.00 | 0.00 | 0.00 | 81 | 1016.6 |
| 20260901120516 | 54 | 48 | 0.0 | 0.0 | 0.00 | 0.00 | 0.00 | 80 | 1016.6 |
| 20260901120012 | 54 | 11 | 1.7 | 1.7 | 0.00 | 0.00 | 0.00 | 80 | 1016.6 |
| 20260901115506 | 54 | 10 | 0.9 | 0.9 | 0.00 | 0.00 | 0.00 | 80 | 1016.4 |
| 20260901115004 | 53 | 22 | 0.0 | 0.0 | 0.00 | 0.00 | 0.00 | 81 | 1016.3 |
| 20260901114459 | 53 | 22 | 0.0 | 0.0 | 0.00 | 0.00 | 0.00 | 81 | 1016.3 |
| 20260901113956 | 53 | 42 | 0.0 | 0.0 | 0.00 | 0.00 | 0.00 | 82 | 1016.3 |
| 20260901113456 | 53 | 62 | 0.0 | 0.0 | 0.00 | 0.00 | 0.00 | 82 | 1016.4 |